When you browse on this site, cookies collect data to enhance your experience and personalize the content and advertising you see.
Visit our Privacy Policy to learn more. By continuing to use the site, you agree to this use of cookies and data.
  • In Hungary
  • List of Countries
  • For 7 days
  • Water Temperature
  • Satellite Maps
  • Weather Map
  • News
  • Weather Widgets
  • user-avatar
    Login

    Hourly Weather Kalety

    Today, 19 April, Friday

    Time Temperature Precipitation Wind Pressure Humidity
    00:00 +11°C° 0 mm 1 mps 746 mmHg 60%
    01:00 +10°C° 0 mm 1 mps 746 mmHg 62%
    02:00 +10°C° 0 mm 1 mps 746 mmHg 62%
    03:00 +10°C° 0 mm 1 mps 746 mmHg 63%
    04:00 +9°C° 0 mm 1 mps 746 mmHg 64%
    05:00 +10°C° 0 mm 1 mps 746 mmHg 61%
    06:00 +12°C° 0 mm 1 mps 746 mmHg 58%
    07:00 +13°C° 0 mm 1 mps 746 mmHg 55%
    08:00 +15°C° 0 mm 2 mps 746 mmHg 49%
    09:00 +16°C° 0 mm 3 mps 746 mmHg 44%
    10:00 +18°C° 0 mm 3 mps 746 mmHg 38%
    11:00 +19°C° 0 mm 4 mps 746 mmHg 36%
    12:00 +20°C° 0 mm 4 mps 746 mmHg 33%
    13:00 +20°C° 0 mm 4 mps 746 mmHg 31%
    14:00 +20°C° 0 mm 4 mps 746 mmHg 31%
    15:00 +20°C° 0 mm 4 mps 746 mmHg 31%
    16:00 +20°C° 0 mm 4 mps 745 mmHg 32%
    17:00 +18°C° 0 mm 4 mps 746 mmHg 37%
    18:00 +16°C° 0 mm 3 mps 746 mmHg 42%
    19:00 +14°C° 0 mm 2 mps 746 mmHg 48%
    20:00 +14°C° 0 mm 2 mps 746 mmHg 49%
    21:00 +13°C° 0 mm 2 mps 746 mmHg 51%
    22:00 +12°C° 0 mm 2 mps 746 mmHg 53%
    23:00 +11°C° 0 mm 1 mps 746 mmHg 54%

    Tomorrow, 20 April, Saturday

    Time Temperature Precipitation Wind Pressure Humidity
    00:00 +11°C° 0 mm 1 mps 746 mmHg 55%
    01:00 +10°C° 0 mm 1 mps 746 mmHg 56%
    02:00 +10°C° 0 mm 1 mps 746 mmHg 58%
    03:00 +9°C° 0 mm 1 mps 746 mmHg 59%
    04:00 +8°C° 0 mm 0 mps 746 mmHg 61%
    05:00 +10°C° 0 mm 1 mps 746 mmHg 58%
    06:00 +11°C° 0 mm 1 mps 746 mmHg 55%
    07:00 +13°C° 0 mm 1 mps 746 mmHg 51%
    08:00 +14°C° 0 mm 1 mps 745 mmHg 46%
    09:00 +16°C° 0 mm 2 mps 745 mmHg 41%
    10:00 +18°C° 0 mm 2 mps 745 mmHg 36%
    11:00 +18°C° 0 mm 3 mps 745 mmHg 34%
    12:00 +19°C° 0 mm 3 mps 744 mmHg 32%
    13:00 +19°C° 0 mm 4 mps 744 mmHg 30%
    14:00 +19°C° 0 mm 4 mps 744 mmHg 30%
    15:00 +19°C° 0 mm 4 mps 743 mmHg 30%
    16:00 +18°C° 0 mm 4 mps 743 mmHg 30%
    17:00 +17°C° 0 mm 4 mps 743 mmHg 32%
    18:00 +14°C° 0 mm 3 mps 743 mmHg 34%
    19:00 +12°C° 0 mm 3 mps 742 mmHg 36%
    20:00 +13°C° 0 mm 2 mps 742 mmHg 40%
    21:00 +12°C° 0 mm 2 mps 742 mmHg 44%
    22:00 +10°C° 0 mm 2 mps 742 mmHg 48%
    23:00 +9°C° 0 mm 2 mps 742 mmHg 53%

    Day after tomorrow, 21 April, Sunday

    Time Temperature Precipitation Wind Pressure Humidity
    00:00 +9°C° 0 mm 2 mps 742 mmHg 58%
    01:00 +8°C° 0 mm 2 mps 742 mmHg 62%
    02:00 +7°C° 0 mm 2 mps 742 mmHg 66%
    03:00 +8°C° 0 mm 1 mps 741 mmHg 70%
    04:00 +7°C° 0 mm 1 mps 741 mmHg 74%
    05:00 +9°C° 0 mm 1 mps 741 mmHg 71%
    06:00 +10°C° 0 mm 1 mps 741 mmHg 67%
    07:00 +11°C° 0 mm 1 mps 741 mmHg 63%
    08:00 +12°C° 0 mm 2 mps 741 mmHg 55%
    09:00 +14°C° 0 mm 2 mps 741 mmHg 48%
    10:00 +16°C° 0 mm 3 mps 740 mmHg 40%
    11:00 +16°C° 0 mm 3 mps 740 mmHg 37%
    12:00 +17°C° 0 mm 3 mps 740 mmHg 34%
    13:00 +18°C° 0 mm 3 mps 739 mmHg 31%
    14:00 +18°C° 0 mm 3 mps 739 mmHg 31%
    15:00 +17°C° 0 mm 4 mps 738 mmHg 32%
    16:00 +17°C° 0 mm 4 mps 738 mmHg 33%
    17:00 +16°C° 0 mm 3 mps 738 mmHg 38%
    18:00 +13°C° 0 mm 3 mps 738 mmHg 43%
    19:00 +13°C° 0 mm 2 mps 738 mmHg 49%
    20:00 +12°C° 0 mm 2 mps 738 mmHg 51%
    21:00 +12°C° 0 mm 1 mps 738 mmHg 52%
    22:00 +11°C° 0 mm 1 mps 738 mmHg 54%
    23:00 +11°C° 0 mm 1 mps 737 mmHg 56%

    22 April, Monday

    Time Temperature Precipitation Wind Pressure Humidity
    00:00 +10°C° 0 mm 2 mps 737 mmHg 57%
    01:00 +9°C° 0 mm 2 mps 737 mmHg 59%
    02:00 +10°C° 0 mm 1 mps 737 mmHg 60%
    03:00 +10°C° 0 mm 1 mps 736 mmHg 61%
    04:00 +9°C° 0 mm 1 mps 736 mmHg 62%
    05:00 +10°C° 0.1 mm 1 mps 736 mmHg 64%
    06:00 +9°C° 0.1 mm 2 mps 736 mmHg 66%
    07:00 +9°C° 0.1 mm 2 mps 736 mmHg 67%
    08:00 +10°C° 0.2 mm 3 mps 736 mmHg 63%
    09:00 +12°C° 0.2 mm 3 mps 736 mmHg 59%
    10:00 +13°C° 0.2 mm 4 mps 736 mmHg 55%
    11:00 +14°C° 0.2 mm 5 mps 736 mmHg 51%
    12:00 +15°C° 0.2 mm 5 mps 736 mmHg 48%
    13:00 +16°C° 0.2 mm 6 mps 735 mmHg 45%
    14:00 +15°C° 1 mm 6 mps 735 mmHg 54%
    15:00 +13°C° 1 mm 5 mps 735 mmHg 62%
    16:00 +12°C° 1 mm 5 mps 734 mmHg 71%
    17:00 +12°C° 0.8 mm 5 mps 734 mmHg 75%
    18:00 +10°C° 0.8 mm 5 mps 734 mmHg 78%
    19:00 +10°C° 0.8 mm 5 mps 734 mmHg 82%
    20:00 +10°C° 0.1 mm 5 mps 734 mmHg 81%
    21:00 +10°C° 0.1 mm 5 mps 734 mmHg 81%
    22:00 +10°C° 0.1 mm 6 mps 734 mmHg 80%
    23:00 +9°C° 0 mm 6 mps 734 mmHg 80%

    23 April, Tuesday

    Time Temperature Precipitation Wind Pressure Humidity
    00:00 +9°C° 0 mm 6 mps 734 mmHg 80%
    01:00 +9°C° 0 mm 6 mps 734 mmHg 80%
    02:00 +9°C° 0 mm 6 mps 734 mmHg 80%
    03:00 +8°C° 0 mm 6 mps 734 mmHg 81%
    04:00 +8°C° 0 mm 6 mps 734 mmHg 81%
    05:00 +9°C° 0 mm 6 mps 734 mmHg 76%
    06:00 +9°C° 0 mm 7 mps 734 mmHg 71%
    07:00 +10°C° 0 mm 7 mps 734 mmHg 67%
    08:00 +10°C° 0.2 mm 7 mps 734 mmHg 65%
    09:00 +11°C° 0.2 mm 7 mps 734 mmHg 64%
    10:00 +11°C° 0.2 mm 6 mps 734 mmHg 63%
    11:00 +14°C° 0 mm 6 mps 734 mmHg 57%
    12:00 +16°C° 0 mm 7 mps 734 mmHg 51%
    13:00 +18°C° 0 mm 7 mps 734 mmHg 45%
    14:00 +17°C° 0 mm 7 mps 734 mmHg 49%
    15:00 +16°C° 0 mm 7 mps 734 mmHg 52%
    16:00 +14°C° 0 mm 7 mps 734 mmHg 56%
    17:00 +12°C° 0 mm 7 mps 734 mmHg 58%
    18:00 +11°C° 0 mm 7 mps 734 mmHg 59%
    19:00 +10°C° 0 mm 6 mps 734 mmHg 61%
    20:00 +10°C° 0 mm 6 mps 734 mmHg 61%
    21:00 +10°C° 0 mm 5 mps 734 mmHg 61%
    22:00 +9°C° 0 mm 5 mps 734 mmHg 62%
    23:00 +9°C° 0 mm 5 mps 734 mmHg 64%

    24 April, Wednesday

    Time Temperature Precipitation Wind Pressure Humidity
    00:00 +10°C° 0 mm 4 mps 734 mmHg 67%
    01:00 +8°C° 0 mm 4 mps 734 mmHg 70%
    02:00 +8°C° 0 mm 4 mps 734 mmHg 71%
    03:00 +8°C° 0 mm 4 mps 734 mmHg 71%
    04:00 +8°C° 0 mm 4 mps 734 mmHg 72%
    05:00 +10°C° 0 mm 4 mps 734 mmHg 70%
    06:00 +10°C° 0 mm 4 mps 734 mmHg 68%
    07:00 +11°C° 0 mm 4 mps 735 mmHg 66%
    08:00 +13°C° 0 mm 4 mps 735 mmHg 62%
    09:00 +15°C° 0 mm 4 mps 735 mmHg 57%
    10:00 +18°C° 0 mm 4 mps 735 mmHg 53%
    11:00 +19°C° 0 mm 4 mps 736 mmHg 53%
    12:00 +19°C° 0 mm 4 mps 736 mmHg 52%
    13:00 +19°C° 0 mm 4 mps 736 mmHg 52%
    14:00 +19°C° 0 mm 4 mps 736 mmHg 54%
    15:00 +19°C° 0 mm 4 mps 736 mmHg 56%
    16:00 +18°C° 0 mm 3 mps 736 mmHg 57%
    17:00 +17°C° 0 mm 3 mps 736 mmHg 62%
    18:00 +16°C° 0 mm 3 mps 736 mmHg 67%
    19:00 +14°C° 0 mm 3 mps 736 mmHg 73%
    20:00 +13°C° 0 mm 3 mps 736 mmHg 73%
    21:00 +13°C° 0 mm 3 mps 736 mmHg 74%
    22:00 +13°C° 0 mm 3 mps 736 mmHg 75%
    23:00 +13°C° 0 mm 3 mps 736 mmHg 75%
    Show more